This is the latest recevied weather packets stored in our database for station/object N2WH. If no packets are shown the sender has not sent any weather packets the latest 10 day(s).
| Time | Temp. | Humidity | Pressure | Rain* | Wind** | Luminosity | Snow |
|---|---|---|---|---|---|---|---|
| 1777398141 | 16.67° C | 46% | 1021.5 hPa | 0 mm | - | 184 W/m² | - |
| 1777397837 | 16.11° C | 46% | 1021.5 hPa | 0 mm | - | 164 W/m² | - |
| 1777397532 | 16.11° C | 46% | 1021.5 hPa | 0 mm | - | 143 W/m² | - |
| 1777397229 | 16.11° C | 46% | 1021.6 hPa | 0 mm | - | 139 W/m² | - |
| 1777396926 | 16.67° C | 47% | 1021.7 hPa | 0 mm | - | 143 W/m² | - |
| 1777396622 | 16.67° C | 46% | 1021.5 hPa | 0 mm | - | 152 W/m² | - |
| 1777396319 | 16.67° C | 46% | 1021.9 hPa | 0 mm | - | 161 W/m² | - |
| 1777396016 | 16.67° C | 46% | 1021.7 hPa | 0 mm | - | 163 W/m² | - |
| 1777395716 | 16.67° C | 44% | 1021.9 hPa | 0 mm | - | 166 W/m² | - |
| 1777395412 | 17.22° C | 45% | 1021.9 hPa | 0 mm | - | 172 W/m² | - |
| 1777395110 | 17.22° C | 44% | 1021.8 hPa | 0 mm | - | 189 W/m² | - |
| 1777394807 | 17.22° C | 43% | 1021.9 hPa | 0 mm | - | 222 W/m² | - |
| 1777394503 | 17.78° C | 44% | 1022 hPa | 0 mm | - | 238 W/m² | - |
| 1777394199 | 17.78° C | 43% | 1021.8 hPa | 0 mm | - | 263 W/m² | - |
| 1777393895 | 17.78° C | 43% | 1021.8 hPa | 0 mm | - | 298 W/m² | - |
| 1777393594 | 17.78° C | 44% | 1021.8 hPa | 0 mm | - | 301 W/m² | - |
| 1777393290 | 17.78° C | 44% | 1021.9 hPa | 0 mm | - | 314 W/m² | - |
| 1777392987 | 17.78° C | 43% | 1022.1 hPa | 0 mm | - | 332 W/m² | - |
| 1777392682 | 17.78° C | 43% | 1022.3 hPa | 0 mm | - | 371 W/m² | - |
| 1777392379 | 17.78° C | 43% | 1022.4 hPa | 0 mm | - | 406 W/m² | - |
| 1777392074 | 17.78° C | 46% | 1022.5 hPa | 0 mm | - | 518 W/m² | - |
| 1777391769 | 17.22° C | 45% | 1022.6 hPa | 0 mm | - | 504 W/m² | - |
| 1777391465 | 17.78° C | 44% | 1022.5 hPa | 0 mm | - | 580 W/m² | - |
| 1777391162 | 17.22° C | 45% | 1022.3 hPa | 0 mm | - | 511 W/m² | - |
| 1777390858 | 16.67° C | 46% | 1022.5 hPa | 0 mm | - | 427 W/m² | - |
* Rain latest hour (hover to see other rain measurements)
** Current wind speed in m/s (hover to see current wind gust speed)